This is the latest recevied weather packets stored in our database for station/object WX7FGZ-7. If no packets are shown the sender has not sent any weather packets the latest 10 day(s).
| Time | Temp. | Humidity | Pressure | Rain* | Wind** | Luminosity | Snow |
|---|---|---|---|---|---|---|---|
| 1777133527 | 17.78° C | 24% | 1012.6 hPa | 0 mm | - | - | - |
| 1777133389 | 17.78° C | 24% | 1012.5 hPa | 0 mm | - | - | - |
| 1777133231 | 17.78° C | 24% | 1012.5 hPa | 0 mm | - | - | - |
| 1777132760 | 16.67° C | 26% | 1012.7 hPa | 0 mm | - | - | - |
| 1777132627 | 16.67° C | 26% | 1012.7 hPa | 0 mm | - | - | - |
| 1777132511 | 16.67° C | 25% | 1012.7 hPa | 0 mm | - | - | - |
| 1777132325 | 16.67° C | 25% | 1012.7 hPa | 0 mm | - | - | - |
| 1777131857 | 16.67° C | 25% | 1012.9 hPa | 0 mm | - | - | - |
| 1777131725 | 16.67° C | 25% | 1012.9 hPa | 0 mm | - | - | - |
| 1777130526 | 16.11° C | 25% | 1013 hPa | 0 mm | - | - | - |
| 1777130053 | 16.11° C | 25% | 1013 hPa | 0 mm | - | - | - |
| 1777129928 | 16.11° C | 25% | 1013 hPa | 0 mm | - | - | - |
| 1777129158 | 15.56° C | 27% | 1013 hPa | 0 mm | - | - | - |
| 1777129025 | 15.56° C | 27% | 1013 hPa | 0 mm | - | - | - |
| 1777128867 | 15.56° C | 26% | 1013 hPa | 0 mm | - | - | - |
| 1777128725 | 15.56° C | 26% | 1013 hPa | 0 mm | - | - | - |
| 1777128293 | 15.56° C | 27% | 1012.3 hPa | 0 mm | - | - | - |
| 1777128128 | 15.56° C | 27% | 1012.3 hPa | 0 mm | - | - | - |
| 1777127832 | 15° C | 29% | 1012.1 hPa | 0 mm | - | - | - |
| 1777125915 | 12.22° C | 31% | 1011.7 hPa | 0 mm | - | - | - |
| 1777125728 | 12.22° C | 31% | 1011.7 hPa | 0 mm | - | - | - |
| 1777125597 | 11.67° C | 33% | 1011.9 hPa | 0 mm | - | - | - |
| 1777125424 | 11.67° C | 33% | 1011.9 hPa | 0 mm | - | - | - |
| 1777125257 | 10.56° C | 35% | 1011.7 hPa | 0 mm | - | - | - |
| 1777125128 | 10.56° C | 35% | 1011.7 hPa | 0 mm | - | - | - |
* Rain latest hour (hover to see other rain measurements)
** Current wind speed in m/s (hover to see current wind gust speed)